Weather History for KBTP - March, 2013

Change the Weather History Date:

Wednesday, March 27, 2013

  Actual Average Record
Temperature  
Mean Temperature 36 °F -  
Max Temperature 39 °F 50 °F 78 °F (1998)
Min Temperature 32 °F 32 °F 14 °F (1975)
Degree Days  
Heating Degree Days 30    
Moisture  
Dew Point 27 °F    
Average Humidity 75    
Maximum Humidity 93    
Minimum Humidity 56    
Precipitation  
Precipitation 0.01 in - - ()
Sea Level Pressure  
Sea Level Pressure 30.10 in    
Wind  
Wind Speed 7 mph (West)    
Max Wind Speed 15 mph    
Max Gust Speed 23 mph    
Visibility 8 miles    
Events      
Averages and records for this station are not official NWS values.
T = Trace of Precipitation, MM = Missing Value Source: NWS Daily Summary

Daily Weather History Graph

Daily Weather History Graph

Search for Another Location

Airport or City:

Trip Planner

Search our weather history database for the weather conditions in past years. The results will help you decide how hot, cold, wet, or windy it might be!

Date:

Astronomy

Mar. 27, 2013 Rise Set
Actual Time 7:11 AM EDT 7:39 PM EDT
Civil Twilight 6:43 AM EDT 8:07 PM EDT
Nautical Twilight 6:11 AM EDT 8:39 PM EDT
Astronomical Twilight 5:38 AM EDT 9:12 PM EDT
Moon 8:22 PM EDT (3/27) 7:00 AM EDT (3/27)
Length of Visible Light 13h 23m
Length of Day
12h 28m
Full, 100% of the Moon is Illuminated
Mar 27
Full
Apr 3
Last Quarter
Apr 10
New
Apr 18
First Quarter
Apr 25
Full

Hourly Weather History & Observations

Time (EDT) Temp. Windchill Dew Point Humidity Pressure Visibility Wind Dir Wind Speed Gust Speed Precip Events Conditions
12:15 AM 33.8 °F 29.6 °F 28.4 °F 81% 30.06 in 3.0 mi WNW 4.6 mph - N/A   Overcast
12:35 AM 33.8 °F 30.8 °F 28.4 °F 81% 30.06 in 3.0 mi NW 3.5 mph - N/A   Overcast
12:55 AM 33.8 °F 28.6 °F 30.2 °F 87% 30.06 in 5.0 mi West 5.8 mph - N/A   Overcast
1:15 AM 32.0 °F 26.4 °F 28.4 °F 87% 30.05 in 3.0 mi West 5.8 mph - N/A   Overcast
1:35 AM 32.0 °F 27.5 °F 28.4 °F 87% 30.06 in 5.0 mi West 4.6 mph - N/A   Overcast
1:55 AM 32.0 °F 27.5 °F 28.4 °F 87% 30.05 in 2.5 mi West 4.6 mph - N/A   Overcast
2:15 AM 32.0 °F 27.5 °F 30.2 °F 93% 30.05 in 3.0 mi West 4.6 mph - N/A   Overcast
2:35 AM 32.0 °F 25.6 °F 30.2 °F 93% 30.05 in 5.0 mi West 6.9 mph - N/A   Overcast
2:55 AM 32.0 °F 27.5 °F 28.4 °F 87% 30.05 in 6.0 mi West 4.6 mph - N/A   Overcast
3:15 AM 32.0 °F 26.4 °F 28.4 °F 87% 30.05 in 5.0 mi West 5.8 mph - N/A   Overcast
3:35 AM 32.0 °F 27.5 °F 28.4 °F 87% 30.04 in 7.0 mi West 4.6 mph - N/A   Overcast
3:55 AM 32.0 °F 25.6 °F 28.4 °F 87% 30.04 in 1.5 mi West 6.9 mph - N/A   Overcast
4:15 AM 32.0 °F 25.6 °F 28.4 °F 87% 30.04 in 1.8 mi West 6.9 mph - N/A   Overcast
4:35 AM 32.0 °F 26.4 °F 28.4 °F 87% 30.04 in 5.0 mi West 5.8 mph - N/A   Overcast
4:55 AM 32.0 °F 25.6 °F 28.4 °F 87% 30.05 in 7.0 mi West 6.9 mph - N/A   Overcast
5:15 AM 32.0 °F 25.6 °F 28.4 °F 87% 30.04 in 7.0 mi West 6.9 mph - N/A   Overcast
5:35 AM 32.0 °F 26.4 °F 28.4 °F 87% 30.05 in 6.0 mi West 5.8 mph - 0.01 in   Overcast
5:55 AM 32.0 °F 26.4 °F 28.4 °F 87% 30.05 in 3.0 mi West 5.8 mph - 0.01 in   Overcast
6:15 AM 32.0 °F 25.6 °F 28.4 °F 87% 30.06 in 2.0 mi West 6.9 mph - N/A   Overcast
6:35 AM 32.0 °F 24.2 °F 28.4 °F 87% 30.06 in 4.0 mi West 9.2 mph - N/A   Overcast
6:55 AM 32.0 °F 25.6 °F 28.4 °F 87% 30.06 in 3.0 mi West 6.9 mph - N/A   Overcast
7:15 AM 32.0 °F 26.4 °F 28.4 °F 87% 30.07 in 4.0 mi West 5.8 mph - N/A   Overcast
7:35 AM 32.0 °F 26.4 °F 28.4 °F 87% 30.07 in 3.0 mi West 5.8 mph - N/A   Overcast
7:55 AM 32.0 °F 24.8 °F 28.4 °F 87% 30.08 in 3.0 mi West 8.1 mph - N/A   Overcast
8:15 AM 32.0 °F 25.6 °F 28.4 °F 87% 30.08 in 3.0 mi West 6.9 mph - N/A   Overcast
8:35 AM 32.0 °F 24.8 °F 28.4 °F 87% 30.09 in 5.0 mi West 8.1 mph - N/A   Overcast
8:55 AM 32.0 °F 25.6 °F 28.4 °F 87% 30.10 in 5.0 mi West 6.9 mph - N/A   Overcast
9:15 AM 32.0 °F 26.4 °F 28.4 °F 87% 30.10 in 6.0 mi WNW 5.8 mph - N/A   Overcast
9:35 AM 32.0 °F 23.6 °F 28.4 °F 87% 30.11 in 9.0 mi West 10.4 mph - N/A   Overcast
9:55 AM 33.8 °F 26.4 °F 28.4 °F 81% 30.11 in 10.0 mi WNW 9.2 mph - N/A   Overcast
10:15 AM 33.8 °F 27.0 °F 26.6 °F 75% 30.11 in 10.0 mi WNW 8.1 mph - N/A   Overcast
10:35 AM 33.8 °F 27.7 °F 26.6 °F 75% 30.11 in 10.0 mi West 6.9 mph 16.1 mph N/A   Overcast
10:55 AM 33.8 °F 26.4 °F 26.6 °F 75% 30.11 in 10.0 mi West 9.2 mph - N/A   Overcast
11:15 AM 33.8 °F 25.8 °F 28.4 °F 81% 30.12 in 10.0 mi West 10.4 mph 16.1 mph N/A   Overcast
11:35 AM 35.6 °F 29.2 °F 26.6 °F 70% 30.12 in 10.0 mi West 8.1 mph 17.3 mph N/A   Overcast
11:55 AM 35.6 °F 27.1 °F 26.6 °F 70% 30.12 in 10.0 mi West 12.7 mph 17.3 mph N/A   Overcast
12:15 PM 35.6 °F 28.0 °F 24.8 °F 65% 30.12 in 10.0 mi West 10.4 mph 18.4 mph N/A   Mostly Cloudy
12:35 PM 37.4 °F 31.4 °F 26.6 °F 65% 30.12 in 10.0 mi West 8.1 mph - N/A   Overcast
12:55 PM 37.4 °F 29.8 °F 26.6 °F 65% 30.12 in 10.0 mi WNW 11.5 mph 19.6 mph N/A   Overcast
1:15 PM 37.4 °F 30.3 °F 24.8 °F 60% 30.11 in 10.0 mi West 10.4 mph 23.0 mph N/A   Overcast
1:35 PM 37.4 °F 29.3 °F 24.8 °F 60% 30.12 in 10.0 mi West 12.7 mph 16.1 mph N/A   Mostly Cloudy
1:55 PM 37.4 °F 30.8 °F 24.8 °F 60% 30.12 in 10.0 mi West 9.2 mph 19.6 mph N/A   Overcast
2:15 PM 39.2 °F 32.0 °F 24.8 °F 56% 30.11 in 10.0 mi West 11.5 mph 18.4 mph N/A   Overcast
2:35 PM 39.2 °F 31.2 °F 24.8 °F 56% 30.11 in 10.0 mi West 13.8 mph 19.6 mph N/A   Overcast
2:55 PM 39.2 °F 32.0 °F 24.8 °F 56% 30.11 in 10.0 mi West 11.5 mph 21.9 mph N/A   Mostly Cloudy
3:15 PM 39.2 °F 32.5 °F 24.8 °F 56% 30.10 in 10.0 mi West 10.4 mph 19.6 mph N/A   Scattered Clouds
3:35 PM 39.2 °F 33.6 °F 24.8 °F 56% 30.10 in 10.0 mi WNW 8.1 mph - N/A   Mostly Cloudy
3:55 PM 39.2 °F 31.6 °F 24.8 °F 56% 30.10 in 10.0 mi West 12.7 mph 20.7 mph N/A   Overcast
4:15 PM 39.2 °F 30.8 °F 24.8 °F 56% 30.10 in 10.0 mi West 15.0 mph 20.7 mph N/A   Mostly Cloudy
4:35 PM 39.2 °F 32.0 °F 24.8 °F 56% 30.10 in 10.0 mi WNW 11.5 mph 19.6 mph N/A   Mostly Cloudy
4:55 PM 39.2 °F 31.2 °F 26.6 °F 61% 30.10 in 10.0 mi West 13.8 mph 17.3 mph N/A   Mostly Cloudy
5:15 PM 37.4 °F 31.4 °F 28.4 °F 70% 30.10 in 10.0 mi West 8.1 mph - N/A   Mostly Cloudy
5:35 PM 37.4 °F 30.8 °F 28.4 °F 70% 30.11 in 10.0 mi West 9.2 mph 16.1 mph N/A   Mostly Cloudy
5:55 PM 37.4 °F 32.1 °F 28.4 °F 70% 30.12 in 10.0 mi WNW 6.9 mph 16.1 mph N/A   Mostly Cloudy
6:15 PM 37.4 °F 31.4 °F 26.6 °F 65% 30.12 in 10.0 mi West 8.1 mph 16.1 mph N/A   Mostly Cloudy
6:35 PM 37.4 °F 32.1 °F 26.6 °F 65% 30.12 in 10.0 mi WNW 6.9 mph - N/A   Overcast
6:55 PM 37.4 °F 32.8 °F 26.6 °F 65% 30.12 in 10.0 mi West 5.8 mph - N/A   Mostly Cloudy
7:15 PM 37.4 °F 29.3 °F 28.4 °F 70% 30.13 in 10.0 mi SW 12.7 mph - N/A   Mostly Cloudy
7:35 PM 35.6 °F 30.7 °F 28.4 °F 75% 30.13 in 10.0 mi WSW 5.8 mph - N/A   Overcast
7:55 PM 35.6 °F 29.9 °F 28.4 °F 75% 30.13 in 10.0 mi WSW 6.9 mph - N/A   Scattered Clouds
8:15 PM 37.4 °F 32.1 °F 28.4 °F 70% 30.13 in 10.0 mi West 6.9 mph - N/A   Mostly Cloudy
8:35 PM 37.4 °F 31.4 °F 28.4 °F 70% 30.14 in 10.0 mi West 8.1 mph - N/A   Overcast
8:55 PM 37.4 °F 32.1 °F 26.6 °F 65% 30.13 in 10.0 mi West 6.9 mph - N/A   Mostly Cloudy
9:15 PM 35.6 °F 30.7 °F 26.6 °F 70% 30.14 in 10.0 mi West 5.8 mph - N/A   Overcast
9:35 PM 35.6 °F 29.2 °F 26.6 °F 70% 30.14 in 10.0 mi West 8.1 mph - N/A   Mostly Cloudy
9:55 PM 35.6 °F 29.9 °F 26.6 °F 70% 30.14 in 10.0 mi West 6.9 mph - N/A   Mostly Cloudy
10:15 PM 35.6 °F 29.9 °F 28.4 °F 75% 30.14 in 10.0 mi West 6.9 mph - N/A   Overcast
10:35 PM 35.6 °F 30.7 °F 28.4 °F 75% 30.14 in 10.0 mi West 5.8 mph - N/A   Mostly Cloudy
10:55 PM 35.6 °F 31.7 °F 26.6 °F 70% 30.14 in 10.0 mi West 4.6 mph - N/A   Mostly Cloudy
11:15 PM 35.6 °F 28.6 °F 28.4 °F 75% 30.14 in 8.0 mi West 9.2 mph - N/A   Mostly Cloudy
11:35 PM 35.6 °F 29.2 °F 28.4 °F 75% 30.13 in 9.0 mi West 8.1 mph - N/A   Mostly Cloudy
11:55 PM 35.6 °F 29.9 °F 28.4 °F 75% 30.14 in 10.0 mi West 6.9 mph - N/A   Overcast